Location: Newark
(21.1700°N, 79.6500°E)
Time: 16:52:50
(UTC+00:00)

Hubble Space Telescope - Visible Passes

Search period start: 14 December 2019 00:00
Search period end: 24 December 2019 00:00
Orbit: 536 x 540 km, 28.5° (Epoch: 14 December)

Date Brightness Start Highest point End Pass type
(mag) Time Alt. Az. Time Alt. Az. Time Alt. Az.
14 Dec 1.0 00:27:28 11° W 00:31:20 53° NNW 00:35:23 10° ENE visible
14 Dec 3.5 22:42:39 16° E 22:42:39 16° E 22:43:36 10° ENE visible
15 Dec 1.2 00:18:00 18° W 00:20:47 44° NNW 00:24:46 10° ENE visible
16 Dec 1.4 00:08:25 24° WNW 00:10:16 38° NNW 00:14:09 10° ENE visible
16 Dec 1.6 23:58:42 29° NW 23:59:45 34° N 00:03:32 10° ENE visible
17 Dec 1.7 23:48:55 31° NNW 23:49:14 31° N 23:52:57 10° ENE visible
18 Dec 2.0 23:39:03 29° N 23:39:03 29° N 23:42:24 10° ENE visible
19 Dec 2.3 23:29:08 26° NNE 23:29:08 26° NNE 23:31:52 10° ENE visible
20 Dec 2.6 23:19:11 23° NE 23:19:11 23° NE 23:21:22 10° ENE visible
21 Dec 2.9 23:09:13 20° NE 23:09:13 20° NE 23:10:55 10° ENE visible
22 Dec 1.2 00:44:48 10° WNW 00:48:50 52° NNE 00:52:53 10° E visible
22 Dec 3.3 22:59:15 17° ENE 22:59:15 17° ENE 23:00:28 10° ENE visible
23 Dec 1.0 00:34:35 12° WNW 00:38:16 64° NNE 00:42:24 10° E visible
23 Dec 3.6 22:49:17 14° ENE 22:49:17 14° ENE 22:50:02 10° ENE visible
